Wind_Speed
19 19 10 2 28 34 9 7 6 6 8 7 4 2 2 2 2 4 3 7 7 5 3 4 5 7 8 8 9 10 11 10 10 10 10 12 15 17 18 17 17 17 18 18 19 19 19 19 20
12 16 13 22 36 29 9 13 10 9 8 11 6 3 2 1 2 5 4 3 3 5 8 10 10 11 12 12 13 16 17 17 15 15 16 17 17 18 20 24 25 25 23 21 21 21 23 22 22
20 18 21 28 28 8 11 11 13 7 9 9 10 9 6 5 6 7 6 7 9 11 11 10 10 10 12 11 11 18 19 20 20 20 21 22 22 21 21 22 24 26 26 25 22 21 22 23 23
6 13 27 31 14 7 7 8 12 13 5 9 8 7 7 9 9 8 9 11 11 13 12 10 13 10 10 10 17 18 21 21 22 24 26 26 28 26 25 25 25 26 29 28 27 26 26 25 25
19 23 16 21 14 5 8 4 12 12 8 8 12 10 9 8 9 10 11 11 11 13 12 10 13 15 18 21 21 21 25 21 23 22 22 23 26 28 28 28 28 28 29 30 31 30 29 29 27
22 7 22 23 6 5 10 9 10 13 16 13 10 9 9 13 11 12 14 13 12 12 12 13 15 18 20 25 27 27 24 30 26 27 27 21 23 28 32 31 29 30 30 30 30 29 28 30 29
13 11 15 14 17 11 16 10 9 8 6 7 9 10 11 10 14 13 12 13 15 16 14 17 20 23 26 26 26 27 24 26 29 29 26 25 26 31 33 35 33 33 31 29 29 28 29 29 29
14 7 10 12 10 9 13 8 13 8 10 6 7 13 16 14 10 7 11 13 10 5 17 20 18 21 20 21 23 26 26 26 28 27 28 26 27 27 32 38 33 33 28 31 30 33 33 34 34
15 7 17 22 19 9 9 11 11 21 14 6 9 10 13 13 13 12 20 25 7 3 18 26 31 33 31 27 29 33 28 27 28 27 28 29 23 31 34 35 31 23 30 33 32 33 39 40 39
9 7 5 6 18 17 10 6 6 13 21 18 8 6 13 14 19 20 24 17 34 24 23 28 29 30 31 35 35 35 33 31 29 28 29 29 21 23 27 33 34 36 33 36 22 28 40 44 44
4 2 4 3 6 19 18 14 27 23 27 21 24 18 15 15 22 19 28 26 34 32 33 33 32 32 33 35 36 34 33 30 29 28 29 24 28 28 33 34 36 39 34 36 36 36 36 23 29
9 9 2 4 10 17 14 15 21 9 24 16 20 23 20 12 28 27 25 31 33 35 36 36 35 32 30 29 28 27 27 28 30 28 26 25 26 26 30 33 25 42 37 31 34 36 39 45 30
6 8 6 8 13 16 26 29 21 14 8 16 19 23 29 26 25 28 36 28 28 34 30 26 26 24 23 24 25 26 27 26 25 27 26 19 28 31 33 33 37 38 34 35 36 37 36 38 40
5 15 9 12 11 11 18 18 18 21 17 14 16 17 19 23 24 26 30 34 37 29 28 28 27 27 28 28 28 27 27 29 29 32 34 31 28 32 32 38 42 25 30 38 37 32 34 38 40
5 19 20 3 18 22 29 15 11 7 15 12 11 15 14 19 20 24 29 34 29 27 26 29 28 29 31 32 32 33 33 38 42 34 26 42 37 32 36 42 46 47 42 39 48 46 46 39 42
15 7 8 13 23 25 17 13 10 9 8 13 16 14 19 22 23 24 32 28 21 23 26 29 33 34 34 33 34 33 35 37 42 38 39 42 43 41 40 44 47 50 48 45 47 51 49 56 49
23 18 16 16 20 29 19 17 7 9 17 16 15 18 21 20 22 29 34 26 23 24 27 30 33 34 34 33 33 35 36 36 40 43 43 45 45 46 45 45 47 49 49 48 49 53 59 57 55
23 17 19 5 13 8 6 17 3 20 17 14 19 9 22 25 27 33 36 30 23 24 28 30 32 35 36 34 35 38 38 38 42 43 45 46 45 46 47 47 48 49 50 51 51 52 54 57 59
7 13 18 11 13 10 19 12 8 9 11 27 24 20 22 28 28 29 34 24 23 24 29 33 34 35 37 37 37 38 40 43 45 47 47 46 48 44 43 41 43 43 44 46 46 47 49 50 53
9 13 13 15 5 14 8 12 5 12 17 20 30 23 26 30 27 31 33 20 22 25 31 35 36 37 39 38 41 43 43 46 49 52 49 42 38 39 40 41 42 43 43 44 43 44 45 46 48
9 9 13 8 19 29 24 13 20 20 8 18 27 7 31 31 31 34 29 23 25 27 31 34 38 41 41 42 43 43 46 50 51 47 44 45 42 40 39 40 40 39 40 39 38 39 40 40 40
10 18 14 10 20 24 10 21 14 21 32 25 30 32 33 37 34 33 33 26 27 32 33 36 40 43 42 43 43 44 49 53 47 46 46 47 45 42 41 40 37 35 33 31 30 31 32 33 33
11 7 10 16 23 33 21 29 15 18 39 15 41 36 32 36 36 31 34 25 27 32 37 38 42 45 44 43 43 48 52 48 47 48 49 49 48 43 39 37 35 30 28 26 24 23 24 24 25
6 13 20 18 20 21 30 22 4 35 36 33 36 36 34 40 39 33 34 27 28 32 37 39 43 47 44 43 44 49 50 47 49 50 48 43 41 42 36 31 26 24 23 20 17 16 16 18 21
3 11 13 25 26 18 13 21 36 27 38 32 41 38 35 38 37 37 32 27 28 32 35 38 42 46 43 42 46 51 48 49 50 45 47 43 37 34 29 22 20 18 16 15 11 15 19 21 21
10 9 12 14 12 16 23 21 28 21 27 33 32 31 34 35 34 35 28 25 28 32 35 38 43 44 42 42 46 50 48 50 44 45 47 42 35 30 27 23 22 19 17 16 16 18 20 21 23
10 10 8 11 12 15 26 27 23 30 30 30 31 33 34 36 34 33 26 24 28 33 35 41 46 43 40 41 47 49 47 47 42 44 44 39 33 29 26 25 24 22 20 18 18 19 23 23 24
6 8 8 6 10 13 22 20 25 33 33 36 39 41 39 38 34 27 20 24 29 34 37 41 47 44 40 41 47 47 47 44 40 45 41 40 33 27 27 26 25 24 21 18 19 21 22 25 27
8 9 9 10 8 6 9 19 31 29 35 36 37 38 40 38 26 23 21 25 29 33 36 42 44 41 38 40 46 46 46 42 39 43 42 37 34 27 28 27 27 24 21 22 23 25 22 25 32
6 8 8 8 10 10 9 19 28 27 28 28 33 35 34 21 19 19 22 26 28 31 36 41 41 39 38 39 44 46 45 41 37 40 40 36 34 29 28 30 28 24 24 24 25 26 23 27 32
Wind_Direction
95 83 102 206 80 80 47 5 35 16 21 18 7 318 18 357 51 95 80 43 46 36 0 349 345 346 348 348 343 339 330 321 317 308 300 297 296 296 290 279 271 265 265 263 260 258 256 259 258
67 42 95 69 81 82 42 6 44 46 61 47 34 46 1 315 3 15 38 18 4 344 341 343 342 343 344 343 346 347 333 320 310 300 293 292 291 293 291 290 286 282 278 272 269 267 258 263 259
77 88 70 59 58 60 46 14 357 54 29 39 37 45 41 27 16 5 353 334 336 340 339 337 341 339 337 340 342 345 342 321 304 299 295 289 281 278 279 282 287 287 284 279 277 274 271 263 263
26 53 107 70 54 51 22 26 348 354 27 356 345 341 23 20 11 2 352 337 332 334 330 322 340 356 2 339 338 320 330 327 312 295 291 285 282 275 277 278 277 280 286 285 279 277 274 270 269
61 55 45 80 101 91 350 11 116 332 350 37 22 3 2 357 5 19 15 2 347 346 3 348 352 354 344 342 342 339 335 329 331 319 306 301 288 277 275 277 281 282 279 279 281 279 281 278 274
57 339 31 351 28 29 356 340 346 60 3 4 14 28 26 26 16 9 5 353 346 353 354 349 346 346 343 344 338 336 329 324 319 321 313 300 304 294 279 279 282 285 283 285 282 282 279 277 274
15 289 79 314 353 359 4 17 354 356 65 353 6 15 9 15 18 1 342 335 333 336 348 349 351 343 341 339 334 316 313 316 313 310 315 301 292 292 303 287 282 283 283 282 283 284 280 273 271
75 53 82 3 13 89 2 97 350 323 117 168 3 13 14 8 359 355 348 341 294 324 346 340 326 328 329 336 327 317 336 322 313 312 306 306 286 299 296 293 285 295 276 284 286 283 282 277 272
67 20 17 20 353 342 91 244 347 326 121 346 51 25 16 359 352 342 340 328 232 358 35 338 335 338 334 338 330 332 327 319 307 307 302 303 282 271 293 292 287 295 305 285 274 278 283 278 273
31 46 46 17 332 317 265 48 252 1 350 10 4 357 358 328 344 303 359 327 352 2 345 337 331 330 332 327 324 322 324 320 306 304 304 308 296 290 304 294 286 286 297 288 287 285 279 280 275
66 57 69 300 273 283 306 318 22 7 337 5 358 2 318 336 340 317 352 357 347 352 338 333 330 330 328 327 326 324 322 323 325 314 314 313 306 303 308 305 300 297 294 291 295 289 276 277 291
44 310 180 274 247 273 268 298 66 333 330 349 356 341 319 356 340 334 347 349 344 341 333 329 330 332 332 335 336 336 337 337 331 328 320 312 311 304 300 303 307 295 293 294 297 290 289 285 291
345 193 354 290 266 300 323 328 360 70 338 323 319 353 336 346 345 336 341 346 336 332 337 346 350 354 351 347 344 342 339 333 321 312 315 318 308 307 311 303 295 299 291 297 291 282 279 291 292
260 271 83 269 296 264 286 338 319 315 316 319 351 348 360 338 326 340 339 337 338 346 349 353 357 353 350 346 342 340 334 318 312 313 322 291 319 303 299 295 294 258 310 293 284 301 286 292 270
313 230 156 334 327 306 325 335 316 344 8 354 341 348 354 340 350 350 345 335 339 344 350 351 350 346 343 338 335 335 329 322 314 324 297 311 309 303 298 293 292 288 292 285 287 293 287 276 277
259 23 20 18 305 314 331 309 309 324 343 339 347 350 351 348 348 354 350 341 344 346 346 347 347 342 338 334 331 329 324 322 313 320 316 310 305 301 295 291 289 289 289 284 278 281 271 290 289
16 349 18 6 339 338 338 322 344 300 317 330 328 328 346 345 347 350 354 345 340 342 346 345 342 337 335 335 329 325 324 322 318 316 311 306 305 302 295 293 292 291 287 283 280 277 279 281 280
7 312 49 346 350 318 336 333 33 324 304 357 333 336 342 339 333 336 344 337 338 344 343 340 341 337 335 335 330 327 325 320 316 311 308 306 304 300 300 295 291 288 285 283 280 277 275 275 278
319 265 279 268 312 286 280 303 244 309 329 339 337 337 342 346 344 341 341 337 337 342 340 340 343 339 336 336 332 327 323 320 316 315 313 311 305 302 298 295 292 289 286 284 283 282 280 279 278
235 317 304 314 251 285 203 288 263 262 59 343 344 349 354 350 353 349 343 342 337 343 339 343 343 342 336 336 333 330 327 322 323 321 320 313 312 306 301 297 293 289 286 283 282 281 281 280 279
253 303 338 349 301 303 268 229 329 345 281 43 352 356 355 349 345 349 344 338 339 342 343 344 345 343 340 337 334 332 328 327 328 325 323 319 317 310 305 300 296 292 290 288 287 286 285 284 283
347 298 339 279 262 272 298 339 330 331 339 358 354 346 351 349 345 342 344 337 341 338 345 347 347 343 341 338 336 333 331 332 332 330 327 322 318 313 308 305 300 295 292 290 288 286 286 287 289
290 334 294 310 296 322 307 332 265 356 340 6 353 343 334 340 342 340 341 339 339 339 343 349 349 346 344 341 339 336 336 338 337 334 331 328 324 319 312 309 311 308 304 302 302 300 299 297 293
294 318 331 300 352 338 359 329 138 346 334 332 343 345 340 334 339 336 341 338 339 345 344 349 347 347 346 343 341 339 342 343 341 339 342 341 337 330 327 323 322 322 319 315 313 312 311 309 305
310 349 317 332 1 347 54 11 329 326 344 341 335 338 337 332 338 338 337 336 339 346 346 347 347 348 348 346 342 343 349 346 346 352 358 352 346 343 346 355 354 351 346 340 336 333 329 321 315
339 318 310 302 341 299 313 321 291 331 339 332 331 332 333 330 334 337 336 334 340 345 347 352 353 352 349 346 346 349 352 349 354 357 360 7 10 17 13 12 11 5 358 356 346 339 338 330 318
295 276 322 328 20 341 330 342 315 333 327 333 331 337 332 326 328 334 334 335 344 346 350 353 357 354 352 351 350 354 353 353 359 2 3 8 12 17 20 19 10 3 0 358 351 342 339 334 328
317 334 350 337 334 350 332 326 324 318 327 340 332 335 333 328 328 334 336 343 347 348 354 356 355 355 355 353 353 357 355 358 360 5 9 8 13 18 16 10 9 6 5 359 351 343 339 342 344
321 300 337 328 337 350 335 303 298 310 315 330 328 330 331 328 334 338 342 347 349 352 356 356 355 356 358 356 356 359 358 1 4 8 11 13 15 17 12 12 10 8 7 1 355 353 345 350 351
316 288 316 326 319 290 265 301 308 313 319 333 331 334 338 346 336 337 345 346 351 354 356 356 357 359 3 358 358 1 1 3 8 13 14 15 17 17 12 13 10 9 7 5 9 6 7 360 0
Height
5913 5914 5909 5904 5898 5901 5912 5908 5904 5903 5902 5900 5899 5896 5895 5894 5893 5898 5894 5893 5893 5891 5890 5888 5886 5884 5883 5881 5880 5879 5877 5876 5875 5874 5874 5874 5875 5875 5874 5871 5869 5867 5867 5867 5866 5865 5864 5863 5862
5914 5915 5908 5908 5904 5906 5914 5909 5906 5904 5904 5902 5901 5899 5897 5896 5894 5893 5893 5891 5891 5891 5890 5889 5886 5884 5882 5880 5878 5877 5875 5873 5872 5871 5869 5868 5868 5867 5867 5867 5867 5866 5865 5864 5863 5862 5861 5859 5857
5917 5914 5910 5912 5910 5918 5917 5913 5908 5907 5905 5903 5902 5901 5899 5897 5896 5895 5893 5894 5893 5893 5891 5889 5886 5884 5881 5880 5878 5876 5874 5871 5869 5867 5865 5864 5863 5862 5861 5860 5860 5860 5860 5859 5859 5857 5857 5856 5854
5917 5919 5907 5908 5922 5924 5919 5916 5910 5908 5907 5904 5904 5904 5902 5900 5899 5898 5897 5896 5895 5893 5891 5888 5886 5884 5881 5878 5876 5873 5870 5867 5864 5863 5861 5859 5858 5856 5855 5853 5852 5852 5852 5853 5853 5853 5852 5850 5850
5918 5917 5912 5905 5922 5923 5920 5917 5912 5911 5908 5905 5905 5904 5903 5902 5901 5901 5899 5897 5894 5892 5889 5887 5885 5883 5880 5877 5874 5872 5868 5865 5861 5857 5855 5854 5853 5850 5848 5846 5846 5846 5846 5844 5845 5846 5847 5844 5843
5918 5924 5921 5919 5921 5916 5923 5919 5911 5911 5910 5908 5906 5905 5906 5904 5904 5902 5899 5895 5891 5889 5886 5884 5882 5880 5878 5876 5873 5870 5866 5863 5858 5854 5850 5847 5846 5843 5841 5840 5839 5839 5838 5837 5836 5837 5839 5838 5837
5926 5925 5923 5928 5928 5924 5922 5918 5912 5917 5917 5910 5908 5908 5908 5906 5902 5900 5895 5891 5889 5887 5886 5882 5879 5876 5875 5874 5869 5862 5856 5854 5855 5850 5846 5842 5839 5837 5838 5835 5834 5834 5833 5832 5830 5830 5831 5830 5832
5929 5930 5931 5933 5927 5928 5921 5899 5915 5913 5906 5907 5909 5909 5909 5905 5899 5896 5892 5886 5881 5879 5880 5881 5880 5875 5873 5872 5865 5860 5851 5851 5849 5846 5841 5837 5833 5832 5833 5831 5831 5830 5829 5830 5826 5825 5824 5824 5825
5933 5932 5928 5931 5928 5927 5929 5915 5919 5914 5906 5919 5911 5910 5908 5903 5898 5895 5891 5884 5868 5876 5867 5878 5875 5867 5862 5863 5859 5855 5853 5848 5845 5843 5836 5832 5828 5829 5828 5824 5826 5825 5824 5821 5816 5817 5820 5817 5816
5939 5938 5943 5940 5930 5924 5913 5916 5912 5913 5911 5912 5913 5909 5904 5900 5897 5886 5887 5886 5864 5878 5878 5877 5875 5868 5864 5857 5854 5852 5848 5846 5842 5839 5834 5827 5825 5825 5823 5819 5819 5821 5820 5811 5804 5807 5810 5809 5808
5943 5943 5944 5941 5934 5920 5921 5913 5910 5911 5907 5907 5906 5904 5901 5903 5897 5889 5891 5886 5876 5870 5874 5874 5870 5864 5861 5857 5852 5847 5845 5843 5840 5836 5832 5827 5824 5821 5817 5816 5812 5811 5814 5807 5802 5802 5802 5799 5798
5942 5941 5941 5941 5931 5925 5925 5919 5903 5921 5907 5908 5904 5905 5902 5897 5894 5895 5894 5883 5881 5877 5874 5868 5862 5860 5857 5852 5849 5846 5844 5841 5836 5831 5826 5822 5818 5816 5813 5811 5808 5800 5799 5803 5802 5799 5798 5792 5790
5944 5936 5941 5935 5931 5926 5923 5918 5902 5913 5912 5911 5912 5910 5901 5896 5895 5890 5886 5889 5887 5880 5873 5869 5865 5859 5854 5851 5849 5846 5843 5839 5833 5828 5828 5811 5817 5814 5809 5803 5801 5795 5795 5792 5790 5788 5787 5786 5785
5934 5935 5938 5927 5927 5927 5926 5924 5921 5917 5915 5913 5913 5910 5906 5901 5897 5891 5887 5882 5879 5874 5871 5865 5859 5856 5854 5851 5848 5845 5840 5829 5823 5819 5818 5814 5805 5808 5803 5798 5794 5782 5791 5785 5774 5772 5774 5774 5775
5939 5934 5934 5918 5926 5925 5923 5922 5919 5918 5914 5913 5910 5908 5906 5904 5899 5896 5891 5884 5877 5873 5868 5864 5861 5857 5852 5848 5844 5841 5833 5827 5822 5818 5816 5810 5803 5802 5796 5791 5785 5780 5784 5780 5769 5767 5765 5765 5760
5936 5932 5929 5930 5932 5925 5925 5924 5920 5917 5912 5911 5908 5906 5904 5900 5897 5895 5889 5882 5878 5873 5869 5864 5858 5854 5849 5845 5841 5837 5829 5821 5813 5806 5803 5801 5795 5792 5788 5781 5776 5770 5769 5770 5767 5759 5756 5749 5751
5934 5931 5930 5931 5930 5922 5921 5921 5919 5913 5910 5908 5906 5903 5902 5899 5895 5890 5885 5881 5877 5872 5868 5863 5858 5852 5847 5843 5837 5832 5826 5819 5809 5801 5796 5791 5786 5779 5775 5771 5765 5760 5756 5754 5752 5748 5741 5740 5738
5939 5928 5928 5939 5932 5929 5922 5920 5918 5912 5903 5903 5904 5906 5899 5896 5892 5887 5883 5879 5875 5871 5866 5862 5857 5849 5843 5838 5831 5824 5819 5815 5808 5802 5794 5785 5777 5769 5763 5757 5751 5746 5741 5739 5736 5734 5732 5728 5723
5948 5944 5941 5937 5935 5931 5924 5921 5920 5911 5891 5900 5903 5901 5898 5893 5890 5885 5881 5876 5873 5870 5865 5859 5853 5846 5839 5833 5826 5819 5812 5803 5796 5790 5782 5775 5764 5758 5750 5744 5737 5734 5728 5723 5722 5720 5716 5714 5710
5942 5938 5938 5935 5930 5930 5911 5912 5916 5917 5885 5908 5899 5890 5889 5889 5887 5884 5877 5874 5872 5868 5862 5855 5849 5843 5834 5827 5819 5811 5804 5795 5786 5776 5768 5759 5754 5746 5739 5733 5727 5720 5716 5712 5709 5706 5703 5701 5698
5940 5939 5938 5938 5931 5926 5914 5901 5913 5910 5912 5897 5904 5872 5889 5887 5883 5880 5876 5872 5868 5865 5860 5853 5845 5837 5829 5821 5814 5805 5796 5787 5778 5766 5758 5749 5742 5734 5728 5721 5715 5709 5704 5700 5697 5695 5692 5690 5687
5944 5937 5937 5930 5928 5924 5918 5914 5910 5909 5906 5896 5905 5896 5888 5885 5881 5878 5874 5869 5865 5860 5856 5850 5843 5834 5825 5817 5808 5799 5790 5780 5769 5759 5749 5738 5731 5724 5715 5709 5703 5698 5694 5691 5688 5686 5684 5682 5680
5939 5936 5932 5927 5926 5923 5915 5906 5899 5904 5901 5894 5896 5893 5890 5883 5881 5878 5872 5868 5864 5858 5851 5846 5839 5830 5821 5812 5803 5793 5783 5772 5762 5751 5740 5728 5717 5710 5702 5696 5691 5688 5685 5683 5681 5679 5676 5674 5672
5937 5932 5932 5927 5920 5916 5911 5905 5885 5901 5906 5900 5897 5893 5886 5882 5879 5874 5870 5867 5863 5857 5850 5844 5836 5827 5818 5808 5798 5789 5778 5767 5756 5744 5733 5721 5710 5701 5692 5688 5684 5682 5679 5676 5675 5674 5672 5670 5667
5934 5933 5932 5926 5922 5906 5911 5905 5907 5908 5903 5898 5895 5891 5888 5883 5878 5873 5869 5865 5861 5857 5850 5843 5835 5824 5814 5805 5796 5785 5773 5762 5750 5740 5728 5716 5705 5696 5689 5685 5682 5680 5677 5675 5673 5671 5669 5665 5662
5931 5932 5930 5928 5926 5922 5920 5920 5909 5912 5910 5908 5903 5895 5889 5883 5878 5873 5869 5864 5859 5854 5848 5841 5832 5821 5811 5803 5793 5781 5770 5759 5747 5737 5726 5715 5705 5698 5692 5688 5684 5681 5678 5676 5673 5670 5666 5662 5657
5930 5930 5928 5927 5927 5921 5918 5914 5909 5909 5908 5905 5898 5893 5888 5882 5877 5872 5867 5863 5857 5851 5845 5837 5828 5820 5810 5801 5790 5779 5769 5757 5746 5737 5726 5716 5708 5701 5696 5692 5687 5683 5679 5676 5672 5668 5664 5659 5654
5930 5928 5928 5927 5927 5926 5920 5911 5908 5908 5906 5901 5893 5887 5883 5878 5873 5870 5866 5861 5856 5850 5843 5835 5826 5817 5808 5799 5789 5778 5768 5756 5747 5737 5727 5718 5710 5705 5700 5695 5689 5684 5679 5676 5672 5667 5662 5657 5649
5930 5930 5926 5926 5925 5925 5924 5916 5910 5908 5903 5901 5894 5888 5880 5873 5870 5867 5864 5860 5855 5849 5842 5834 5825 5817 5808 5798 5788 5778 5767 5756 5747 5738 5730 5721 5714 5708 5703 5697 5691 5685 5680 5676 5671 5665 5659 5653 5645
5926 5926 5925 5924 5923 5921 5921 5916 5911 5908 5904 5900 5893 5887 5880 5873 5870 5867 5863 5859 5854 5848 5841 5834 5825 5816 5807 5798 5788 5778 5768 5758 5749 5740 5732 5724 5717 5712 5705 5699 5693 5687 5682 5677 5672 5665 5658 5651 5643